Weather History for Findlay, OH

Change the Weather History Date:

Saturday, July 5, 2014

  Actual Average Record
Temperature  
Mean Temperature 65 °F -  
Max Temperature 78 °F 80 °F 99 °F (1988)
Min Temperature 52 °F 62 °F 51 °F (1963)
Growing Degree Days 15 (Base 50)    
Moisture  
Dew Point 50 °F    
Average Humidity 59    
Maximum Humidity 89    
Minimum Humidity 34    
Precipitation  
Precipitation 0.00 in - - ()
Sea Level Pressure  
Sea Level Pressure 30.23 in    
Wind  
Wind Speed 4 mph (SSW)    
Max Wind Speed 10 mph    
Max Gust Speed -    
Visibility 10 miles    
Events      
Averages and records for this station are not official NWS values.
T = Trace of Precipitation, MM = Missing Value Source: NWS Daily Summary

Daily Weather History Graph

Daily Weather History Graph

Search for Another Location

Airport:

Trip Planner

Search our weather history database for the weather conditions in past years. The results will help you decide how hot, cold, wet, or windy it might be!

Date:

Astronomy

Jul. 05, 2014 Rise Set
Actual Time 6:08 AM EDT 9:09 PM EDT
Civil Twilight 5:35 AM EDT 9:43 PM EDT
Nautical Twilight 4:52 AM EDT 10:25 PM EDT
Astronomical Twilight 4:03 AM EDT 11:14 PM EDT
Moon 2:05 PM EDT (7/5) 12:58 AM EDT (7/5)
Length of Visible Light 16h 07m
Length of Day
15h 01m
First Quarter, 52% of the Moon is Illuminated
Jul 5
First Quarter
Jul 12
Full
Jul 18
Last Quarter
Jul 26
New
Aug 3
First Quarter

Hourly Weather History & Observations

Time (EDT) Temp. Dew Point Humidity Pressure Visibility Wind Dir Wind Speed Gust Speed Precip Events Conditions
12:53 AM 59.0 °F 48.9 °F 69% 30.28 in 10.0 mi Calm Calm - N/A   Clear
1:53 AM 54.0 °F 48.9 °F 83% 30.29 in 10.0 mi Calm Calm - N/A   Clear
3:53 AM 53.1 °F 48.9 °F 86% 30.28 in 10.0 mi Calm Calm - N/A   Clear
4:53 AM 52.0 °F 48.9 °F 89% 30.28 in 10.0 mi Calm Calm - N/A   Clear
5:53 AM 52.0 °F 48.9 °F 89% 30.29 in 10.0 mi South 4.6 mph - N/A   Clear
6:53 AM 55.0 °F 48.9 °F 80% 30.29 in 10.0 mi Calm Calm - N/A   Clear
7:03 AM 54.0 °F 48.9 °F 83% 30.31 in 10.0 mi Calm Calm - N/A   Partly Cloudy
7:53 AM 59.0 °F 53.1 °F 81% 30.30 in 10.0 mi SSW 4.6 mph - N/A   Clear
8:53 AM 66.0 °F 52.0 °F 60% 30.30 in 10.0 mi South 6.9 mph - N/A   Clear
9:53 AM 71.1 °F 50.0 °F 47% 30.30 in 10.0 mi SSW 10.4 mph - N/A   Clear
10:53 AM 73.9 °F 48.9 °F 41% 30.30 in 10.0 mi SSW 9.2 mph - N/A   Clear
11:53 AM 73.9 °F 48.9 °F 41% 30.28 in 10.0 mi South 9.2 mph - N/A   Clear
12:53 PM 75.9 °F 48.0 °F 37% 30.28 in 10.0 mi SW 9.2 mph - N/A   Clear
1:53 PM 77.0 °F 48.0 °F 36% 30.25 in 10.0 mi Variable 4.6 mph - N/A   Clear
2:53 PM 78.1 °F 48.9 °F 36% 30.22 in 10.0 mi WSW 9.2 mph - N/A   Clear
3:53 PM 77.0 °F 46.9 °F 34% 30.21 in 10.0 mi South 8.1 mph - N/A   Clear
4:53 PM 77.0 °F 48.0 °F 36% 30.19 in 10.0 mi SSW 9.2 mph - N/A   Clear
5:53 PM 75.9 °F 48.9 °F 38% 30.17 in 10.0 mi SW 6.9 mph - N/A   Clear
6:53 PM 73.9 °F 53.1 °F 48% 30.15 in 10.0 mi South 5.8 mph - N/A   Clear
7:53 PM 73.0 °F 53.1 °F 49% 30.14 in 10.0 mi South 6.9 mph - N/A   Clear
8:53 PM 71.1 °F 55.0 °F 57% 30.13 in 10.0 mi SSE 3.5 mph - N/A   Clear
9:53 PM 66.9 °F 55.0 °F 66% 30.12 in 10.0 mi SSE 6.9 mph - N/A   Clear
10:53 PM 64.9 °F 52.0 °F 63% 30.10 in 10.0 mi SSE 6.9 mph - N/A   Clear
11:53 PM 61.0 °F 52.0 °F 72% 30.10 in 10.0 mi South 8.1 mph - N/A   Clear